Ord, NE

12:49 PM CDT on May 26, 2017 (GMT -0500)
Sharp

Weather History for KODX - November, 2011

Change the Weather History Date:

Sunday, November 13, 2011

  Actual Average Record
Temperature  
Mean Temperature 43 °F 38 °F  
Max Temperature 57 °F 50 °F 81 °F (1999)
Min Temperature 29 °F 25 °F -2 °F (2014)
Degree Days  
Heating Degree Days 22 27  
Month to date heating degree days 338 319  
Since 1 July heating degree days 967 939  
Cooling Degree Days 0 0  
Month to date cooling degree days 0 0  
Year to date cooling degree days 922 845  
Moisture  
Dew Point 27 °F    
Average Humidity 55    
Maximum Humidity 82    
Minimum Humidity 28    
Precipitation  
Precipitation 0.01 in 0.04 in 1.10 in (1922)
Month to date precipitation 0.03 0.54  
Year to date precipitation 22.91 23.82  
Sea Level Pressure  
Sea Level Pressure 29.46 in    
Wind  
Wind Speed 10 mph (West)    
Max Wind Speed 37 mph    
Max Gust Speed 45 mph    
Visibility 10 miles    
Events Rain    
T = Trace of Precipitation, MM = Missing Value Source: NWS Daily Summary

Daily Weather History Graph

Daily Weather History Graph

Search for Another Location

Airport or City:

Trip Planner

Search our weather history database for the weather conditions in past years. The results will help you decide how hot, cold, wet, or windy it might be!

Date:

Astronomy

Nov. 13, 2011 Rise Set
Actual Time 7:22 AM CST 5:17 PM CST
Civil Twilight 6:52 AM CST 5:47 PM CST
Nautical Twilight 6:18 AM CST 6:20 PM CST
Astronomical Twilight 5:46 AM CST 6:53 PM CST
Moon 7:26 PM CST (11/13) 9:57 AM CST (11/13)
Length of Visible Light 10h 54m
Length of Day
9h 55m
Waning Gibbous, 92% of the Moon is Illuminated
Nov 13
Waning Gibbous
Nov 18
Last Quarter
Nov 25
New
Dec 2
First Quarter
Dec 10
Full

Hourly Weather History & Observations

Time (CST) Temp. Windchill Dew Point Humidity Pressure Visibility Wind Dir Wind Speed Gust Speed Precip Events Conditions
12:53 AM 50.0 °F - 43.0 °F 77% 29.33 in 10.0 mi WNW 18.4 mph 26.5 mph 0.00 in Rain Light Rain
1:53 AM 48.0 °F - 42.1 °F 80% 29.31 in 10.0 mi West 3.5 mph - 0.01 in   Overcast
2:53 AM 42.1 °F 37.1 °F 37.9 °F 85% 29.29 in 10.0 mi SSW 8.1 mph - N/A   Partly Cloudy
3:20 AM 44.6 °F 35.3 °F 21.2 °F 39% 29.33 in 10.0 mi West 26.5 mph 44.9 mph N/A   Clear
3:53 AM 43.0 °F 35.4 °F 19.9 °F 40% 29.32 in 10.0 mi West 16.1 mph - N/A   Clear
4:53 AM 39.0 °F 31.4 °F 19.9 °F 46% 29.33 in 10.0 mi WSW 12.7 mph - N/A   Clear
5:53 AM 42.1 °F 34.9 °F 23.0 °F 47% 29.35 in 10.0 mi West 13.8 mph - N/A   Mostly Cloudy
6:53 AM 42.1 °F 32.3 °F 30.0 °F 62% 29.39 in 10.0 mi WNW 24.2 mph 33.4 mph N/A   Clear
7:53 AM 42.1 °F 32.6 °F 30.0 °F 62% 29.47 in 10.0 mi WNW 23.0 mph 39.1 mph N/A   Clear
8:53 AM 42.8 °F 33.8 °F 33.8 °F 70% 29.49 in 10.0 mi WNW 21.9 mph 28.8 mph N/A   Clear
9:53 AM 44.1 °F 36.2 °F 34.0 °F 68% 29.52 in 10.0 mi NW 18.4 mph 23.0 mph N/A   Clear
10:53 AM 46.9 °F - 34.0 °F 61% 29.55 in 10.0 mi NW 13.8 mph - N/A   Clear
11:53 AM 50.0 °F - 33.1 °F 52% 29.52 in 10.0 mi WNW 11.5 mph - N/A   Clear
12:53 PM 52.0 °F - 30.9 °F 45% 29.51 in 10.0 mi West 12.7 mph 18.4 mph N/A   Clear
1:53 PM 53.1 °F - 21.9 °F 30% 29.49 in 10.0 mi WNW 15.0 mph - N/A   Clear
2:53 PM 52.0 °F - 19.0 °F 27% 29.50 in 10.0 mi West 9.2 mph - N/A   Clear
3:53 PM 51.1 °F - 21.9 °F 32% 29.51 in 10.0 mi West 4.6 mph - N/A   Clear
4:53 PM 46.0 °F 42.5 °F 24.1 °F 42% 29.52 in 10.0 mi South 6.9 mph - N/A   Clear
5:53 PM 42.1 °F - 23.0 °F 47% 29.53 in 10.0 mi Calm Calm - N/A   Clear
6:53 PM 36.0 °F - 23.0 °F 59% 29.55 in 10.0 mi Calm Calm - N/A   Clear
7:53 PM 33.1 °F - 23.0 °F 66% 29.57 in 10.0 mi Calm Calm - N/A   Clear
8:53 PM 35.1 °F 32.2 °F 23.0 °F 61% 29.57 in 10.0 mi South 3.5 mph - N/A   Clear
9:53 PM 33.1 °F - 23.0 °F 66% 29.57 in 10.0 mi Calm Calm - N/A   Clear
10:53 PM 28.9 °F 23.9 °F 21.9 °F 75% 29.55 in 10.0 mi SW 4.6 mph - N/A   Clear
11:53 PM 36.0 °F 30.3 °F 28.0 °F 73% 29.54 in 10.0 mi SW 6.9 mph - N/A   Partly Cloudy